When you browse on this site, cookies collect data to enhance your experience and personalize the content and advertising you see.
Visit our Privacy Policy to learn more. By continuing to use the site, you agree to this use of cookies and data.
  • In Sweden
  • List of Countries
  • For 7 days
  • Water Temperature
  • Satellite Maps
  • Weather Map
  • Weather Widgets
  • user-avatar
    Login

    Hourly Weather Veliko Tarnovo

    Today, 21 November, Wednesday

    Time Temperature Precipitation Wind Pressure Humidity
    00:00 +5°C° 0.5 mm 2 mps 740 mmHg 95%
    01:00 +5°C° 0.5 mm 2 mps 740 mmHg 95%
    02:00 +5°C° 0.5 mm 2 mps 739 mmHg 96%
    03:00 +6°C° 0.6 mm 2 mps 739 mmHg 96%
    04:00 +6°C° 0.6 mm 2 mps 738 mmHg 96%
    05:00 +6°C° 0.6 mm 2 mps 738 mmHg 96%
    06:00 +6°C° 1.1 mm 2 mps 737 mmHg 96%
    07:00 +6°C° 1.1 mm 2 mps 737 mmHg 96%
    08:00 +7°C° 1.1 mm 2 mps 737 mmHg 96%
    09:00 +7°C° 1.8 mm 2 mps 737 mmHg 96%
    10:00 +7°C° 1.8 mm 3 mps 737 mmHg 96%
    11:00 +8°C° 1.8 mm 3 mps 737 mmHg 96%
    12:00 +7°C° 2.4 mm 3 mps 736 mmHg 96%
    13:00 +7°C° 2.4 mm 3 mps 736 mmHg 95%
    14:00 +7°C° 2.4 mm 3 mps 736 mmHg 95%
    15:00 +7°C° 2 mm 3 mps 736 mmHg 94%
    16:00 +5°C° 2 mm 4 mps 736 mmHg 94%
    17:00 +5°C° 2 mm 4 mps 737 mmHg 93%
    18:00 +5°C° 1.1 mm 4 mps 737 mmHg 93%
    19:00 +4°C° 1.1 mm 4 mps 737 mmHg 92%
    20:00 +4°C° 1.1 mm 4 mps 738 mmHg 92%
    21:00 +4°C° 0.7 mm 4 mps 738 mmHg 92%
    22:00 +4°C° 0.7 mm 4 mps 739 mmHg 91%
    23:00 +4°C° 0.7 mm 3 mps 739 mmHg 91%

    Tomorrow, 22 November, Thursday

    Time Temperature Precipitation Wind Pressure Humidity
    00:00 +3°C° 0.5 mm 3 mps 739 mmHg 91%
    01:00 +3°C° 0.5 mm 3 mps 740 mmHg 91%
    02:00 +3°C° 0.5 mm 3 mps 740 mmHg 91%
    03:00 +3°C° 0.5 mm 3 mps 740 mmHg 91%
    04:00 +2°C° 0.5 mm 3 mps 740 mmHg 91%
    05:00 +3°C° 0.5 mm 2 mps 741 mmHg 90%
    06:00 +3°C° 0.4 mm 2 mps 741 mmHg 90%
    07:00 +3°C° 0.4 mm 2 mps 741 mmHg 90%
    08:00 +3°C° 0.4 mm 2 mps 742 mmHg 90%
    09:00 +3°C° 0.4 mm 2 mps 742 mmHg 89%
    10:00 +3°C° 0.4 mm 2 mps 742 mmHg 88%
    11:00 +3°C° 0.4 mm 2 mps 743 mmHg 87%
    12:00 +3°C° 0.2 mm 2 mps 743 mmHg 87%
    13:00 +4°C° 0.2 mm 2 mps 743 mmHg 86%
    14:00 +4°C° 0.2 mm 2 mps 743 mmHg 85%
    15:00 +4°C° 0.1 mm 2 mps 743 mmHg 86%
    16:00 +5°C° 0.1 mm 1 mps 743 mmHg 87%
    17:00 +4°C° 0.1 mm 1 mps 744 mmHg 87%
    18:00 +4°C° 0 mm 1 mps 744 mmHg 88%
    19:00 +4°C° 0 mm 1 mps 744 mmHg 88%
    20:00 +4°C° 0 mm 1 mps 745 mmHg 88%
    21:00 +4°C° 0 mm 1 mps 745 mmHg 88%
    22:00 +4°C° 0 mm 1 mps 745 mmHg 88%
    23:00 +4°C° 0 mm 1 mps 745 mmHg 88%

    Day after tomorrow, 23 November, Friday

    Time Temperature Precipitation Wind Pressure Humidity
    00:00 +4°C° 0 mm 1 mps 745 mmHg 88%
    01:00 +3°C° 0 mm 1 mps 745 mmHg 88%
    02:00 +3°C° 0 mm 1 mps 746 mmHg 88%
    03:00 +3°C° 0 mm 1 mps 746 mmHg 88%
    04:00 +3°C° 0 mm 1 mps 746 mmHg 88%
    05:00 +2°C° 0 mm 0 mps 746 mmHg 88%
    06:00 +2°C° 0 mm 0 mps 746 mmHg 87%
    07:00 +1°C° 0 mm 0 mps 746 mmHg 86%
    08:00 +1°C° 0 mm 0 mps 747 mmHg 85%
    09:00 +4°C° 0 mm 1 mps 747 mmHg 79%
    10:00 +5°C° 0 mm 1 mps 747 mmHg 73%
    11:00 +6°C° 0 mm 1 mps 747 mmHg 67%
    12:00 +6°C° 0 mm 1 mps 747 mmHg 63%
    13:00 +7°C° 0 mm 1 mps 747 mmHg 59%
    14:00 +8°C° 0 mm 1 mps 747 mmHg 55%
    15:00 +7°C° 0 mm 1 mps 747 mmHg 59%
    16:00 +6°C° 0 mm 1 mps 747 mmHg 62%
    17:00 +5°C° 0 mm 1 mps 747 mmHg 66%
    18:00 +4°C° 0 mm 1 mps 747 mmHg 67%
    19:00 +4°C° 0 mm 1 mps 748 mmHg 68%
    20:00 +4°C° 0 mm 1 mps 748 mmHg 69%
    21:00 +3°C° 0 mm 1 mps 748 mmHg 70%
    22:00 +3°C° 0 mm 1 mps 748 mmHg 70%
    23:00 +3°C° 0 mm 1 mps 748 mmHg 70%

    24 November, Saturday

    Time Temperature Precipitation Wind Pressure Humidity
    00:00 +3°C° 0 mm 1 mps 748 mmHg 70%
    01:00 +3°C° 0 mm 1 mps 748 mmHg 70%
    02:00 +2°C° 0 mm 1 mps 748 mmHg 70%
    03:00 +2°C° 0 mm 1 mps 747 mmHg 70%
    04:00 +2°C° 0 mm 1 mps 747 mmHg 70%
    05:00 +2°C° 0 mm 1 mps 747 mmHg 70%
    06:00 +2°C° 0 mm 1 mps 747 mmHg 70%
    07:00 +2°C° 0 mm 1 mps 747 mmHg 69%
    08:00 +3°C° 0 mm 1 mps 747 mmHg 69%
    09:00 +4°C° 0 mm 1 mps 747 mmHg 64%
    10:00 +6°C° 0 mm 1 mps 746 mmHg 60%
    11:00 +8°C° 0 mm 1 mps 746 mmHg 55%
    12:00 +8°C° 0 mm 1 mps 746 mmHg 54%
    13:00 +9°C° 0 mm 1 mps 745 mmHg 53%
    14:00 +10°C° 0 mm 1 mps 744 mmHg 52%
    15:00 +8°C° 0 mm 1 mps 744 mmHg 57%
    16:00 +7°C° 0 mm 1 mps 744 mmHg 62%
    17:00 +6°C° 0 mm 1 mps 744 mmHg 67%
    18:00 +6°C° 0 mm 1 mps 744 mmHg 68%
    19:00 +5°C° 0 mm 1 mps 744 mmHg 70%
    20:00 +5°C° 0 mm 1 mps 743 mmHg 71%
    21:00 +5°C° 0 mm 1 mps 743 mmHg 72%
    22:00 +5°C° 0 mm 1 mps 743 mmHg 72%
    23:00 +5°C° 0 mm 1 mps 743 mmHg 73%

    25 November, Sunday

    Time Temperature Precipitation Wind Pressure Humidity
    00:00 +4°C° 0 mm 1 mps 742 mmHg 73%
    01:00 +4°C° 0 mm 1 mps 742 mmHg 74%
    02:00 +4°C° 0 mm 1 mps 742 mmHg 74%
    03:00 +4°C° 0 mm 1 mps 741 mmHg 74%
    04:00 +4°C° 0 mm 1 mps 741 mmHg 74%
    05:00 +4°C° 0 mm 1 mps 741 mmHg 74%
    06:00 +5°C° 0 mm 1 mps 741 mmHg 74%
    07:00 +5°C° 0 mm 1 mps 740 mmHg 73%
    08:00 +5°C° 0 mm 1 mps 740 mmHg 73%
    09:00 +7°C° 0 mm 1 mps 740 mmHg 69%
    10:00 +8°C° 0 mm 1 mps 740 mmHg 65%
    11:00 +9°C° 0 mm 1 mps 740 mmHg 61%
    12:00 +10°C° 0 mm 1 mps 740 mmHg 58%
    13:00 +11°C° 0 mm 1 mps 739 mmHg 56%
    14:00 +12°C° 0 mm 1 mps 738 mmHg 54%
    15:00 +11°C° 0 mm 1 mps 738 mmHg 59%
    16:00 +10°C° 0 mm 1 mps 738 mmHg 64%
    17:00 +9°C° 0 mm 1 mps 738 mmHg 70%
    18:00 +8°C° 0 mm 1 mps 738 mmHg 71%
    19:00 +8°C° 0 mm 1 mps 738 mmHg 72%
    20:00 +7°C° 0 mm 2 mps 738 mmHg 73%
    21:00 +7°C° 0 mm 2 mps 737 mmHg 73%
    22:00 +7°C° 0 mm 2 mps 737 mmHg 74%
    23:00 +7°C° 0 mm 2 mps 737 mmHg 74%

    26 November, Monday

    Time Temperature Precipitation Wind Pressure Humidity
    00:00 +7°C° 0 mm 1 mps 737 mmHg 75%
    01:00 +7°C° 0 mm 1 mps 736 mmHg 77%
    02:00 +7°C° 0 mm 1 mps 736 mmHg 78%
    03:00 +7°C° 0 mm 1 mps 735 mmHg 79%
    04:00 +7°C° 0 mm 1 mps 735 mmHg 80%
    05:00 +7°C° 0 mm 1 mps 735 mmHg 81%
    06:00 +7°C° 0 mm 1 mps 734 mmHg 82%
    07:00 +6°C° 0 mm 2 mps 734 mmHg 82%
    08:00 +6°C° 0 mm 2 mps 734 mmHg 83%
    09:00 +7°C° 0.2 mm 2 mps 734 mmHg 82%
    10:00 +9°C° 0.2 mm 1 mps 734 mmHg 81%
    11:00 +10°C° 0.2 mm 1 mps 734 mmHg 80%
    12:00 +9°C° 1.2 mm 1 mps 733 mmHg 83%
    13:00 +9°C° 1.2 mm 1 mps 733 mmHg 87%
    14:00 +8°C° 1.2 mm 0 mps 732 mmHg 90%
    15:00 +8°C° 0.5 mm 0 mps 732 mmHg 91%
    16:00 +8°C° 0.5 mm 0 mps 732 mmHg 92%
    17:00 +8°C° 0.5 mm 0 mps 732 mmHg 93%
    18:00 +7°C° 0.3 mm 0 mps 732 mmHg 93%
    19:00 +8°C° 0.3 mm 1 mps 732 mmHg 94%
    20:00 +8°C° 0.3 mm 1 mps 732 mmHg 94%
    21:00 +8°C° 0.1 mm 1 mps 732 mmHg 94%
    22:00 +8°C° 0.1 mm 1 mps 732 mmHg 94%
    23:00 +8°C° 0.1 mm 1 mps 732 mmHg 94%
    Show more